Location: Roland
(31.1349°N, 85.4372°W)
Time: 18:04:26
(UTC+00:00)

SR - Pass Details

Date: 18 April 2021
Orbit: 573 x 882 km, 66.7° (Epoch: 12 May)

Event Time Altitude Azimuth Distance (km) Brightness Sun altitude
Rises 13:04:17 0° 208° (SSW) 3,201 ? 23.4°
Reaches altitude 10° 13:06:35 10° 210° (SSW) 2,324 ? 23.9°
Maximum altitude 13:11:58 75° 296° (WNW) 856 ? 25.1°
Drops below altitude 10° 13:17:46 10° 21° (NNE) 2,500 ? 26.3°
Sets 13:20:20 0° 24° (NNE) 3,462 ? 26.8°
